Weather History for Capo Bellavista, Italy

Change the Weather History Date:

Saturday, December 1, 2012

  Actual Average (LIED) Record (LIED)
Temperature  
Mean Temperature 52 °F -  
Max Temperature 57 °F 58 °F 69 °F (2004)
Min Temperature 46 °F 49 °F 36 °F (2013)
Degree Days  
Heating Degree Days 14    
Growing Degree Days 2 (Base 50)    
Moisture  
Dew Point 42 °F    
Average Humidity 69    
Maximum Humidity 76    
Minimum Humidity 59    
Precipitation  
Precipitation 0.00 in 0.09 in - ()
Sea Level Pressure  
Sea Level Pressure 29.68 in    
Wind  
Wind Speed 7 mph ()    
Max Wind Speed 15 mph    
Max Gust Speed -    
Visibility 7.0 miles    
Events      
Averages and records for this station are not official NWS values.
T = Trace of Precipitation, MM = Missing Value Source: Averaged Metar Reports

Daily Weather History Graph

Daily Weather History Graph

Search for Another Location

Airport:

Trip Planner

Search our weather history database for the weather conditions in past years. The results will help you decide how hot, cold, wet, or windy it might be!

Date:

Astronomy

Dec. 01, 2012 Rise Set
Actual Time 7:23 AM CET 4:56 PM CET
Civil Twilight 6:53 AM CET 5:26 PM CET
Nautical Twilight 6:20 AM CET 6:00 PM CET
Astronomical Twilight 5:47 AM CET 6:32 PM CET
Moon 7:31 PM CET (12/1) 9:25 AM CET (12/1)
Length of Visible Light 10h 32m
Length of Day
9h 32m
Waning Gibbous, 93% of the Moon is Illuminated
Dec 1
Waning Gibbous
Dec 6
Last Quarter
Dec 13
New
Dec 20
First Quarter
Dec 28
Full

Hourly Weather History & Observations

Time (CET) Temp. Windchill Dew Point Humidity Pressure Visibility Wind Dir Wind Speed Gust Speed Precip Events Conditions
12:55 AM 50.0 °F - 41.0 °F 71% 29.62 in 6.2 mi WSW 8.1 mph - N/A   Partly Cloudy
1:00 AM 49 °F - 41 °F 64% 29.63 in 12 mi WSW 8.1 mph - -   Scattered Clouds
1:55 AM 50.0 °F - 39.2 °F 66% 29.62 in 6.2 mi WSW 9.2 mph - N/A   Partly Cloudy
2:55 AM 50.0 °F - 39.2 °F 66% 29.62 in - WSW 4.6 mph - N/A   Clear
3:55 AM 50.0 °F - 39.2 °F 66% 29.62 in - WSW 6.9 mph - N/A   Clear
4:55 AM 48.2 °F - 39.2 °F 71% 29.62 in 6.2 mi WNW 10.4 mph - N/A   Partly Cloudy
5:55 AM 48.2 °F - 39.2 °F 71% 29.62 in 6.2 mi WNW 12.7 mph - N/A   Partly Cloudy
6:55 AM 50.0 °F - 39.2 °F 66% 29.62 in 6.2 mi WNW 5.8 mph - N/A   Partly Cloudy
7:00 AM 49 °F - 39 °F 59% 29.65 in 12 mi WNW 5.8 mph - -   Scattered Clouds
7:55 AM 46.4 °F 40.7 °F 39.2 °F 76% 29.65 in - WNW 12.7 mph - N/A   Clear
8:55 AM 48.2 °F - 39.2 °F 71% 29.68 in 6.2 mi NW 9.2 mph - N/A   Partly Cloudy
9:55 AM 48.2 °F - 39.2 °F 71% 29.71 in 6.2 mi WNW 10.4 mph - N/A   Partly Cloudy
10:55 AM 51.8 °F - 41.0 °F 67% 29.71 in - WNW 4.6 mph - N/A   Clear
11:55 AM 55.4 °F - 44.6 °F 67% 29.71 in 6.2 mi East 4.6 mph - N/A   Partly Cloudy
12:55 PM 57.2 °F - 46.4 °F 67% 29.71 in 6.2 mi SE 5.8 mph - N/A   Partly Cloudy
1:55 PM 57.2 °F - 46.4 °F 67% 29.71 in 6.2 mi ESE 2.3 mph - N/A   Partly Cloudy
2:55 PM 57.2 °F - 44.6 °F 63% 29.71 in 6.2 mi East 1.2 mph - N/A   Partly Cloudy
3:55 PM 55.4 °F - 44.6 °F 67% 29.71 in 6.2 mi ENE 5.8 mph - N/A   Partly Cloudy
4:55 PM 55.4 °F - 46.4 °F 72% 29.71 in 6.2 mi NNE 5.8 mph - N/A   Partly Cloudy
5:55 PM 51.8 °F - 42.8 °F 71% 29.71 in 6.2 mi NNW 12.7 mph - N/A   Partly Cloudy
6:55 PM 50.0 °F - 42.8 °F 76% 29.71 in 6.2 mi NW 11.5 mph - N/A   Partly Cloudy
7:00 PM 51 °F - 43 °F 65% 29.74 in 12 mi NW 11.5 mph - -   Scattered Clouds
7:55 PM 50.0 °F - 41.0 °F 71% 29.74 in 6.2 mi WNW 10.4 mph - N/A   Scattered Clouds
8:55 PM 50.0 °F - 41.0 °F 71% 29.74 in 6.2 mi WNW 10.4 mph - N/A   Scattered Clouds
9:55 PM 50.0 °F - 41.0 °F 71% 29.74 in 6.2 mi WNW 12.7 mph - N/A   Scattered Clouds
10:55 PM 50.0 °F - 41.0 °F 71% 29.74 in 6.2 mi WNW 15.0 mph - N/A   Scattered Clouds